Regional Weather Roundup
Issued by NWS

Home | Current Version | Previous Version | Graphics & Text | Print | Product List | Glossary On
Versions: 1 2 3 4 5 6 7 8 9 10 11 12 13 14 15 16 17 18 19 20 21 22 23 24 25 26 27 28 29 30 31 32 33 34 35 36 37 38 39 40 41 42 43 44 45 46 47 48 49 50
000
ASUS43 KLOT 171800
RWRIL

ILLINOIS REGIONAL WEATHER ROUNDUP
NATIONAL WEATHER SERVICE CHICAGO/ROMEOVILLE IL
100 PM CDT WED SEP 17 2014

NOTE: "FAIR" INDICATES FEW OR NO CLOUDS BELOW 12,000 FEET WITH NO
SIGNIFICANT WEATHER AND/OR OBSTRUCTIONS TO VISIBILITY.

* THESE STATIONS ARE NOT UNDER NWS QUALITY CONTROL. THEY ALSO MAY NOT
  REPORT WEATHER SUCH AS PRECIPITATION OR FOG.

ILZ001-002-007-009-015-016-024-171900-
NORTHWEST ILLINOIS

CITY           SKY/WX    TMP DP  RH WIND       PRES   REMARKS
MOLINE         CLOUDY    66  52  60 S3        30.01S
6HR MIN TEMP:  46; 6HR MAX TEMP:  66;

STERLING*      FAIR      70  52  52 CALM      30.01F
$$

ILZ003-004-008-010-011-017-018-171900-
NORTH CENTRAL ILLINOIS

CITY           SKY/WX    TMP DP  RH WIND       PRES   REMARKS
ROCKFORD       CLOUDY    66  46  48 S3        30.03F
6HR MIN TEMP:  42; 6HR MAX TEMP:  67;

$$

ILZ005-006-012>014-019>023-171900-
NORTHEAST ILLINOIS

CITY           SKY/WX    TMP DP  RH WIND       PRES   REMARKS
CHICAGO-OHARE  PTSUNNY   68  44  42 NW5       30.02F
6HR MIN TEMP:  48; 6HR MAX TEMP:  68;

CHICAGO-MIDWAY PTSUNNY   67  47  48 SW9       30.02F
6HR MIN TEMP:  50; 6HR MAX TEMP:  69;

AURORA         PTSUNNY   68  46  45 SE7       30.03F
6HR MIN TEMP:  40; 6HR MAX TEMP:  69;

WAUKEGAN       SUNNY     65  44  46 W6        30.01F
DUPAGE AIRPORT CLOUDY    67  44  43 CALM      30.02F
6HR MIN TEMP:  43; 6HR MAX TEMP:  68;

WHEELING       PTSUNNY   67  44  43 S5        30.03F
6HR MIN TEMP:  47; 6HR MAX TEMP:  68;

NORTHERLY ISL    N/A     65  48  54 E8          N/A
$$

LMZ740>746-171900-
SOUTHERN LAKE MICHIGAN

STATION/POSITION SKY/WX   TEMP    WIND        PRES    VSBY  WAVE
                          AIR SEA DIR/SP/G                  HT/PER
                          (F)     (DEG/KT/KT) (MB)    (MI)  (FT/S)
SOUTHERN BUOY              61 65  270/  6/  8 1016.9S         1/ 4
WAUKEGAN HARBOR            64     140/  8/  9   N/A
HARRISON CRIB              62     130/  8/  9   N/A
BURNHAM HARBOR             65     100/  5/  7   N/A
CALUMET HARBOR             65     110/  3/  6 1015.4F
MICHIGAN CITY              63     270/  8/  9   N/A
MICHIGAN CITY 6N           63 65  310/  4/  6   N/A           1
ST. JOSEPH                 62 66  240/  8/ 10   N/A           1/ 2
$$

ILZ025>027-034>036-040-047-049-050-058-095>099-171900-
WEST-CENTRAL ILLINOIS

CITY           SKY/WX    TMP DP  RH WIND       PRES   REMARKS
QUINCY         CLOUDY    64  55  72 SE12      29.99F
$$

ILZ028>032-037-038-041>044-048-051>054-059>061-171900-
CENTRAL ILLINOIS

CITY           SKY/WX    TMP DP  RH WIND       PRES   REMARKS
DECATUR        CLOUDY    65  50  58 SW10      30.04F
PEORIA         PTSUNNY   66  51  58 S13       30.02F
6HR MIN TEMP:  51; 6HR MAX TEMP:  67; 6HR PCP: TRACE;

SPRINGFIELD    PTSUNNY   66  52  60 SE9       30.03F
6HR MIN TEMP:  47; 6HR MAX TEMP:  66;

TAYLORVILLE    NOT AVBL
$$

ILZ033-039-045-046-055>057-062-063-171900-
EAST-CENTRAL ILLINOIS

CITY           SKY/WX    TMP DP  RH WIND       PRES   REMARKS
CHAMPAIGN      CLOUDY    65  50  58 VRB5      30.04F
MATTOON        CLOUDY    63  51  65 S5        30.05F
$$

ILZ079-100>102-171900-
SOUTHWEST ILLINOIS

CITY           SKY/WX    TMP DP  RH WIND       PRES   REMARKS
ALTON          CLOUDY    59  55  88 SE12      30.02F
BELLEVILLE     CLOUDY    60  56  86 NE10      30.01F
CAHOKIA*       CLOUDY    63  56  78 SE8       30.01F
$$

ILZ064>066-069>071-074>076-080>082-084>086-088>090-092>094-171900-
SOUTH-CENTRAL ILLINOIS

CITY           SKY/WX    TMP DP  RH WIND       PRES   REMARKS
CARBONDALE     PTSUNNY   66  54  65 E7        30.01F
6HR MIN TEMP:  44; 6HR MAX TEMP:  66; 6HR PCP: TRACE;

MARION         PTSUNNY   66  54  63 SE7       30.02
MT. VERNON     CLOUDY    63  54  72 E3        30.04F
$$

ILZ067-068-072-073-078-083-087-091-171900-
SOUTHEAST ILLINOIS

CITY           SKY/WX    TMP DP  RH WIND       PRES   REMARKS
LAWRENCEVILLE  PTSUNNY   66  52  60 VRB3      30.06F
$$

ABBREVIATIONS USED IN REMARKS
   TC - TEMPERATURE IN CELSIUS
  WCI - WIND CHILL INDEX
   HX - HEAT INDEX
  VSB - VISIBILITY
$$



USA.gov is the U.S. government's official web portal to all federal, state and local government web resources and services.